This is the latest recevied weather packets stored in our database for station/object IU4KCH-20. If no packets are shown the sender has not sent any weather packets the latest 10 day(s).
| Time | Temp. | Humidity | Pressure | Rain* | Wind** | Luminosity | Snow |
|---|---|---|---|---|---|---|---|
| 1777288893 | 27.78° C | 41% | 1014.7 hPa | - | - | - | - |
| 1777287992 | 26.67° C | 45% | 1014.7 hPa | - | - | - | - |
| 1777287091 | 26.11° C | 47% | 1015 hPa | - | - | - | - |
| 1777286190 | 25.56° C | 51% | 1015.1 hPa | - | - | - | - |
| 1777285289 | 25° C | 53% | 1015.2 hPa | - | - | - | - |
| 1777284389 | 24.44° C | 55% | 1015.3 hPa | - | - | - | - |
| 1777283488 | 23.89° C | 57% | 1015.5 hPa | - | - | - | - |
| 1777282587 | 23.33° C | 58% | 1015.7 hPa | - | - | - | - |
| 1777281686 | 22.78° C | 59% | 1015.8 hPa | - | - | - | - |
| 1777280785 | 22.78° C | 61% | 1015.9 hPa | - | - | - | - |
| 1777279884 | 22.22° C | 64% | 1016 hPa | - | - | - | - |
| 1777278984 | 21.67° C | 65% | 1016.1 hPa | - | - | - | - |
| 1777278083 | 21.11° C | 66% | 1016.2 hPa | - | - | - | - |
| 1777275380 | 19.44° C | 66% | 1016.2 hPa | - | - | - | - |
| 1777274479 | 19.44° C | 66% | 1016.3 hPa | - | - | - | - |
| 1777273579 | 18.89° C | 64% | 1016.4 hPa | - | - | - | - |
| 1777272678 | 18.89° C | 64% | 1016.4 hPa | - | - | - | - |
| 1777271777 | 18.33° C | 65% | 1016.4 hPa | - | - | - | - |
| 1777270876 | 18.33° C | 68% | 1016.4 hPa | - | - | - | - |
| 1777269975 | 17.78° C | 67% | 1016.4 hPa | - | - | - | - |
| 1777269074 | 17.22° C | 68% | 1016.3 hPa | - | - | - | - |
| 1777268174 | 17.22° C | 67% | 1016.1 hPa | - | - | - | - |
| 1777267273 | 17.22° C | 67% | 1016 hPa | - | - | - | - |
| 1777266372 | 17.22° C | 67% | 1015.8 hPa | - | - | - | - |
| 1777265471 | 16.67° C | 71% | 1015.7 hPa | - | - | - | - |
* Rain since midnight (hover to see other rain measurements)
** Current wind speed in m/s (hover to see current wind gust speed)